Regional Weather Roundup
Issued by NWS Sterling, VA

Home | Current Version | Previous Version | Text Only | Print | Product List | Glossary Off
Versions: 1 2 3 4 5 6 7 8 9 10 11 12 13 14 15 16 17 18 19 20 21 22 23 24 25 26 27

000
ASUS41 KLWX 152311
RWRLWX

REGIONAL WEATHER ROUNDUP
NATIONAL WEATHER SERVICE BALTIMORE MD/WASHINGTON DC
600 PM EST FRI DEC 15 2017

Note: "FAIR" indicates few or no clouds below 12,000 feet
with no significant weather and/or obstructions to visibility.
 TC=TEMPERATURE CELSIUS

 * =Non NWS site. Station does not report precipitation (e.g. rain,
    snow, etc.), thunder, or fog.

DCZ001-MDZ009-015-VAZ040>042-051-053>054-160000-
WASHINGTON METRO

CITY           SKY/WX    TMP DP  RH WIND       PRES   REMARKS
WASHINGTON NAT MOCLDY    29  24  82 W5        29.96S
DULLES         CLEAR     24  23  96 CALM      29.95R
ANDREWS AFB    CLOUDY    27  25  93 CALM      29.93S
FT BELVOIR     PTCLDY    28  23  83 CALM      29.96R
QUANTICO       MOCLDY    29  25  85 W3        29.98R
COLLEGE PARK*  CLOUDY    27  24  89 CALM      29.94S
LEESBURG*      CLEAR     27  27 100 CALM      29.95R
MANASSAS*      CLEAR     23  20  88 CALM      29.96R
GAITHERSBURG*  CLEAR     20  17  88 W5        29.93R

$$

MDZ006>007-011-014-160000-
BALTIMORE METRO

CITY           SKY/WX    TMP DP  RH WIND       PRES   REMARKS
BWI AIRPORT    MOCLDY    25  24  96 W3        29.93S
MD SCIENCE CTR   N/A     28  23  81 MISG      29.94S
MARTIN STATE   CLOUDY    27  27 100 CALM      29.96S
ANNAPOLIS      CLOUDY    28  27  96 CALM      29.94S
FORT MEADE*    CLOUDY    27  27 100 CALM      29.96S

$$

MDZ012-015-019>023-160000-
MARYLAND EASTERN SHORE

CITY           SKY/WX    TMP DP  RH WIND       PRES   REMARKS
OCEAN CITY     CLOUDY    30  27  88 NW13G28   29.91R WCI  20
SALISBURY      MIX PCPN  27  25  92 NW14      29.94R FOG     WCI  16
BAY BRIDGE AP* MIX PCPN  28  27  93 NW5       29.95R FOG
CAMBRIDGE*     CLOUDY    27  27 100 N6        29.94S FOG
EASTON*        LGT SNOW  28  25  86 N5        29.98R

$$

MDZ017>025-160000-
SOUTHERN MARYLAND

CITY           SKY/WX    TMP DP  RH WIND       PRES   REMARKS
PATUXENT RIVER CLOUDY    30  27  88 NW7       29.95R
ST INIGOES     CLOUDY    31  24  75 VRB3      29.95R
LEONARDTOWN*   CLOUDY    30  27  86 CALM      29.96R

$$

MDZ003>005-160000-
NORTH CENTRAL MARYLAND

CITY           SKY/WX    TMP DP  RH WIND       PRES   REMARKS
FREDERICK*     PTCLDY    21  18  86 CALM      29.97R
HAGERSTOWN APT CLOUDY    26  20  77 S3        29.91R
WESTMINSTER*   CLEAR     19  19 100 W3        29.90R

$$

MDZ501>502-160000-
WESTERN MARYLAND

CITY           SKY/WX    TMP DP  RH WIND       PRES   REMARKS
OAKLAND*       CLOUDY    19  14  79 W13G22    29.77R WCI   7
CUMBERLAND*    CLOUDY    32  18  55 NW5       29.95F

$$

VAZ025>031-160000-
SHENANDOAH VALLEY

CITY           SKY/WX    TMP DP  RH WIND       PRES   REMARKS
WINCHESTER*    CLOUDY    27  19  74 CALM      29.92R
FRONT ROYAL*   FAIR      27  21  80 MISG      29.91R
LURAY*         CLEAR     27  23  86 SE3       29.91R
NEW MARKET*    CLEAR     24  19  82 CALM      29.91R
STAUNTON*      CLEAR     32  17  53 W10       29.93R WCI  24
WAYNESBORO*    CLEAR     31  18  57 W7        29.89R

$$

WVZ021-048>050-054>055-160000-
EASTERN WEST VIRGINIA PANHANDLE

CITY           SKY/WX    TMP DP  RH WIND       PRES   REMARKS
MARTINSBURG    CLOUDY    26  20  77 SW3       29.92R
PETERSBURG*    MOCLDY    31  16  53 W8        29.92S WCI  24

$$

VAZ036>039-050-160000-
CENTRAL FOOTHILLS

CITY           SKY/WX    TMP DP  RH WIND       PRES   REMARKS
CHARLOTTESVILL CLEAR     30  22  72 CALM      29.93R
CULPEPER*      FAIR      24  21  89 CALM      29.96R
ORANGE*        CLEAR     27  23  86 CALM      29.94R
GORDONSVILLE*  CLEAR     26  22  85 CALM      29.94R
WARRENTON*     CLEAR     24  20  86 CALM      29.95R

$$

VAZ055>057-160000-
NORTH AND CENTRAL PIEDMONT

CITY           SKY/WX    TMP DP  RH WIND       PRES   REMARKS
FREDERICKSBRG* CLEAR     26  23  87 CALM      29.97R
STAFFORD*      CLEAR    N/A N/A N/A S3        30.00R

$$

NCZ024-NYZ072-PAZ021-071-VAZ022-071-160000-
OTHER REGIONAL OBSERVATIONS

CITY           SKY/WX    TMP DP  RH WIND       PRES   REMARKS
NEW YORK CITY  LGT SNOW  24  20  84 NW5       29.93F VSB 1
PHILADELPHIA   LGT SNOW  25  22  88 CALM      29.94S FOG
PITTSBURGH     FLURRIES  28  17  63 SW10G21   29.88R WCI  19
ROANOKE        PTCLDY    33  18  53 NW15G23   29.98R WCI  23
RICHMOND       PTCLDY    36  19  50 CALM      29.96R
RALEIGH        CLOUDY    39  27  62 CALM      29.99R

$$

ANZ530>537-160000-
MARINE OBSERVATIONS

STATION/POSITION TIME  TEMP    WIND        PRES
                       AIR SEA DIR/SP/G
                 (UTC) (F)     (DEG/KT/KT) (MB)
THOMAS PT LIGHT  2300   28 43  310/  2/  3   N/A
BALT KEY BRIDGE  2242   27     100/  1/  2 1014.0S
COVE POINT       2242   30     350/ 10/ 12 1014.5R
LEWISETTA        2242   31 40  320/ 10/ 13 1014.2R
SOLOMONS ISLAND  2242   29 44  320/  5/  8 1013.7R
PINEY POINT      2242          350/ 10/ 12   N/A

$$





USA.gov is the U.S. government's official web portal to all federal, state and local government web resources and services.